Time,TemperatureF,DewpointF,PressureIn,WindDirection,WindDirectionDegrees,WindSpeedMPH,WindSpeedGustMPH,Humidity,HourlyPrecipIn,Conditions,Clouds,dailyrainin,SoftwareType,DateUTC
2013-01-12 00:14:00,33.2,33.0,31.13,East,95,2.0,4.0,98,0.02,,,0.01,weatherlink.com 1.10,2013-01-12 05:14:00,
2013-01-12 00:29:00,33.1,33.0,31.13,SE,132,1.0,4.0,98,0.02,,,0.01,weatherlink.com 1.10,2013-01-12 05:29:00,
2013-01-12 00:44:00,33.2,33.0,31.12,SSE,154,1.0,4.0,98,0.01,,,0.01,weatherlink.com 1.10,2013-01-12 05:44:00,
2013-01-12 00:59:00,33.6,33.0,31.13,SE,127,3.0,4.0,98,0.01,,,0.01,weatherlink.com 1.10,2013-01-12 05:59:00,
2013-01-12 01:14:00,33.4,33.0,31.11,East,82,1.0,5.0,98,0.00,,,0.01,weatherlink.com 1.10,2013-01-12 06:14:00,
2013-01-12 01:29:00,33.3,33.0,31.11,East,89,1.0,4.0,98,0.00,,,0.01,weatherlink.com 1.10,2013-01-12 06:29:00,
2013-01-12 01:44:00,33.4,33.0,31.11,SW,217,2.0,7.0,98,0.00,,,0.01,weatherlink.com 1.10,2013-01-12 06:44:00,
2013-01-12 01:59:00,33.5,33.0,31.12,SE,137,3.0,5.0,98,0.00,,,0.01,weatherlink.com 1.10,2013-01-12 06:59:00,
2013-01-12 02:14:00,33.6,33.0,31.11,ESE,123,0.0,4.0,98,0.00,,,0.01,weatherlink.com 1.10,2013-01-12 07:14:00,
2013-01-12 02:29:00,33.6,33.0,31.12,SSW,212,1.0,3.0,98,0.01,,,0.02,weatherlink.com 1.10,2013-01-12 07:29:00,
2013-01-12 02:44:00,33.7,33.0,31.10,SE,127,0.0,4.0,98,0.01,,,0.02,weatherlink.com 1.10,2013-01-12 07:44:00,
2013-01-12 02:59:00,33.9,33.0,31.10,ESE,103,2.0,6.0,98,0.01,,,0.02,weatherlink.com 1.10,2013-01-12 07:59:00,
2013-01-12 03:14:00,34.0,34.0,31.10,ESE,116,2.0,5.0,98,0.01,,,0.02,weatherlink.com 1.10,2013-01-12 08:14:00,
2013-01-12 03:29:00,34.0,34.0,31.09,SSE,160,2.0,3.0,98,0.00,,,0.02,weatherlink.com 1.10,2013-01-12 08:29:00,
2013-01-12 03:45:00,34.1,34.0,31.10,SSW,200,0.0,5.0,98,0.00,,,0.02,weatherlink.com 1.10,2013-01-12 08:45:00,
2013-01-12 04:00:00,34.0,34.0,31.09,SE,139,3.0,5.0,98,0.00,,,0.02,weatherlink.com 1.10,2013-01-12 09:00:00,
2013-01-12 04:15:00,34.0,34.0,31.09,SE,146,0.0,4.0,98,0.00,,,0.02,weatherlink.com 1.10,2013-01-12 09:15:00,
2013-01-12 04:30:00,34.1,34.0,31.09,SE,129,0.0,3.0,98,0.00,,,0.02,weatherlink.com 1.10,2013-01-12 09:30:00,
2013-01-12 04:45:00,34.1,34.0,31.10,NW,307,0.0,1.0,98,0.00,,,0.02,weatherlink.com 1.10,2013-01-12 09:45:00,
2013-01-12 05:00:00,34.0,34.0,31.10,NW,308,0.0,0.0,98,0.00,,,0.02,weatherlink.com 1.10,2013-01-12 10:00:00,
2013-01-12 05:15:00,33.8,33.0,31.08,NW,308,0.0,1.0,98,0.00,,,0.02,weatherlink.com 1.10,2013-01-12 10:15:00,
2013-01-12 05:30:00,34.1,34.0,31.08,NW,308,0.0,0.0,98,0.00,,,0.02,weatherlink.com 1.10,2013-01-12 10:30:00,
2013-01-12 05:45:00,34.2,34.0,31.08,SSW,198,0.0,2.0,98,0.00,,,0.02,weatherlink.com 1.10,2013-01-12 10:45:00,
2013-01-12 06:00:00,34.5,34.0,31.08,West,271,0.0,2.0,98,0.00,,,0.02,weatherlink.com 1.10,2013-01-12 11:00:00,
2013-01-12 06:15:00,34.8,35.0,31.09,SSE,163,1.0,2.0,99,0.00,,,0.02,weatherlink.com 1.10,2013-01-12 11:15:00,
2013-01-12 06:30:00,34.8,35.0,31.10,SW,231,0.0,1.0,99,0.00,,,0.02,weatherlink.com 1.10,2013-01-12 11:30:00,
2013-01-12 06:45:00,34.6,34.0,31.10,SW,231,0.0,0.0,98,0.00,,,0.02,weatherlink.com 1.10,2013-01-12 11:45:00,
2013-01-12 07:00:00,34.7,34.0,31.10,SSW,198,0.0,2.0,98,0.00,,,0.02,weatherlink.com 1.10,2013-01-12 12:00:00,
2013-01-12 07:15:00,34.3,34.0,31.11,WNW,295,0.0,1.0,98,0.00,,,0.02,weatherlink.com 1.10,2013-01-12 12:15:00,
2013-01-12 07:30:00,34.5,34.0,31.10,WNW,295,0.0,0.0,98,0.00,,,0.02,weatherlink.com 1.10,2013-01-12 12:30:00,
2013-01-12 07:45:00,34.1,34.0,31.11,WNW,288,0.0,0.0,98,0.00,,,0.02,weatherlink.com 1.10,2013-01-12 12:45:00,
2013-01-12 08:00:00,34.0,34.0,31.11,WNW,288,0.0,1.0,98,0.00,,,0.02,weatherlink.com 1.10,2013-01-12 13:00:00,
2013-01-12 08:15:00,34.2,34.0,31.12,WNW,288,0.0,0.0,98,0.00,,,0.02,weatherlink.com 1.10,2013-01-12 13:15:00,
2013-01-12 08:30:00,34.1,34.0,31.12,WNW,290,0.0,0.0,98,0.00,,,0.02,weatherlink.com 1.10,2013-01-12 13:30:00,
2013-01-12 08:45:00,34.6,34.0,31.12,WNW,290,0.0,1.0,99,0.00,,,0.02,weatherlink.com 1.10,2013-01-12 13:45:00,
2013-01-12 09:00:00,35.0,35.0,31.12,WNW,293,0.0,1.0,99,0.01,,,0.03,weatherlink.com 1.10,2013-01-12 14:00:00,
2013-01-12 09:15:00,35.4,35.0,31.13,WNW,292,0.0,1.0,99,0.01,,,0.03,weatherlink.com 1.10,2013-01-12 14:15:00,
2013-01-12 09:30:00,35.7,36.0,31.12,WNW,293,0.0,0.0,99,0.01,,,0.03,weatherlink.com 1.10,2013-01-12 14:30:00,
2013-01-12 09:45:00,35.8,36.0,31.12,NW,309,0.0,1.0,99,0.01,,,0.03,weatherlink.com 1.10,2013-01-12 14:45:00,
2013-01-12 10:00:00,35.9,36.0,31.11,NW,310,0.0,0.0,99,0.00,,,0.03,weatherlink.com 1.10,2013-01-12 15:00:00,
2013-01-12 10:15:00,36.2,36.0,31.11,NW,311,1.0,1.0,99,0.00,,,0.03,weatherlink.com 1.10,2013-01-12 15:15:00,
2013-01-12 10:30:00,36.3,36.0,31.11,NE,56,0.0,1.0,99,0.00,,,0.03,weatherlink.com 1.10,2013-01-12 15:30:00,
2013-01-12 10:45:00,37.1,37.0,31.10,ESE,108,0.0,1.0,99,0.00,,,0.03,weatherlink.com 1.10,2013-01-12 15:45:00,
2013-01-12 11:00:00,37.7,38.0,31.08,ESE,109,0.0,1.0,99,0.00,,,0.03,weatherlink.com 1.10,2013-01-12 16:00:00,
2013-01-12 11:15:00,38.6,38.0,31.07,West,274,1.0,1.0,99,0.00,,,0.03,weatherlink.com 1.10,2013-01-12 16:15:00,
2013-01-12 11:30:00,39.1,39.0,31.07,ESE,115,1.0,2.0,99,0.00,,,0.03,weatherlink.com 1.10,2013-01-12 16:30:00,
2013-01-12 11:46:00,39.7,40.0,31.05,SE,136,1.0,3.0,99,0.00,,,0.03,weatherlink.com 1.10,2013-01-12 16:46:00,
2013-01-12 12:00:00,40.0,40.0,31.05,ESE,122,0.0,2.0,98,0.00,,,0.03,weatherlink.com 1.10,2013-01-12 17:00:00,
2013-01-12 12:15:00,40.1,40.0,31.05,SSW,211,0.0,4.0,98,0.00,,,0.03,weatherlink.com 1.10,2013-01-12 17:15:00,
2013-01-12 12:30:00,40.4,40.0,31.06,SW,221,0.0,3.0,98,0.00,,,0.03,weatherlink.com 1.10,2013-01-12 17:30:00,
2013-01-12 12:45:00,40.8,40.0,31.04,NE,47,0.0,1.0,98,0.00,,,0.03,weatherlink.com 1.10,2013-01-12 17:45:00,
2013-01-12 13:00:00,41.6,41.0,31.06,ESE,108,0.0,1.0,98,0.00,,,0.03,weatherlink.com 1.10,2013-01-12 18:00:00,
2013-01-12 13:15:00,41.9,41.0,31.06,SSW,205,0.0,1.0,98,0.00,,,0.03,weatherlink.com 1.10,2013-01-12 18:15:00,
2013-01-12 13:30:00,42.2,42.0,31.06,SW,229,0.0,1.0,98,0.00,,,0.03,weatherlink.com 1.10,2013-01-12 18:30:00,
2013-01-12 13:45:00,41.6,41.0,31.06,SW,231,0.0,3.0,98,0.00,,,0.03,weatherlink.com 1.10,2013-01-12 18:45:00,
2013-01-12 14:00:00,41.1,41.0,31.07,NNE,13,0.0,1.0,98,0.00,,,0.03,weatherlink.com 1.10,2013-01-12 19:00:00,
2013-01-12 14:15:00,41.4,41.0,31.05,NNE,13,0.0,0.0,98,0.00,,,0.03,weatherlink.com 1.10,2013-01-12 19:15:00,
2013-01-12 14:30:00,41.5,41.0,31.06,South,169,0.0,2.0,98,0.00,,,0.03,weatherlink.com 1.10,2013-01-12 19:30:00,
2013-01-12 14:45:00,42.0,42.0,31.06,SSW,197,1.0,3.0,98,0.00,,,0.03,weatherlink.com 1.10,2013-01-12 19:45:00,
2013-01-12 15:00:00,41.9,41.0,31.07,SSE,150,0.0,4.0,98,0.00,,,0.03,weatherlink.com 1.10,2013-01-12 20:00:00,
2013-01-12 15:15:00,41.9,41.0,31.06,SW,214,0.0,2.0,98,0.00,,,0.03,weatherlink.com 1.10,2013-01-12 20:15:00,
2013-01-12 15:31:00,41.6,41.0,31.07,West,262,0.0,2.0,98,0.00,,,0.03,weatherlink.com 1.10,2013-01-12 20:31:00,
2013-01-12 15:46:00,41.3,41.0,31.06,WSW,248,0.0,2.0,98,0.00,,,0.03,weatherlink.com 1.10,2013-01-12 20:46:00,
2013-01-12 16:01:00,41.1,41.0,31.06,ESE,109,0.0,1.0,98,0.00,,,0.03,weatherlink.com 1.10,2013-01-12 21:01:00,
2013-01-12 16:16:00,41.0,41.0,31.06,WSW,256,0.0,1.0,98,0.00,,,0.03,weatherlink.com 1.10,2013-01-12 21:16:00,
2013-01-12 16:31:00,40.8,40.0,31.06,SE,127,0.0,1.0,98,0.00,,,0.03,weatherlink.com 1.10,2013-01-12 21:31:00,
2013-01-12 16:46:00,40.4,40.0,31.06,SE,127,0.0,1.0,98,0.00,,,0.03,weatherlink.com 1.10,2013-01-12 21:46:00,
2013-01-12 17:01:00,40.3,40.0,31.07,SSE,163,0.0,1.0,99,0.00,,,0.03,weatherlink.com 1.10,2013-01-12 22:01:00,
2013-01-12 17:16:00,40.1,40.0,31.07,WSW,245,1.0,2.0,99,0.00,,,0.03,weatherlink.com 1.10,2013-01-12 22:16:00,
2013-01-12 17:31:00,40.0,40.0,31.07,SSE,149,0.0,1.0,99,0.00,,,0.03,weatherlink.com 1.10,2013-01-12 22:31:00,
2013-01-12 17:46:00,39.8,40.0,31.07,SSE,150,0.0,2.0,99,0.00,,,0.03,weatherlink.com 1.10,2013-01-12 22:46:00,
2013-01-12 18:01:00,39.4,39.0,31.05,ESE,117,0.0,1.0,98,0.00,,,0.03,weatherlink.com 1.10,2013-01-12 23:01:00,
2013-01-12 18:16:00,39.3,39.0,31.05,SSE,154,0.0,1.0,99,0.00,,,0.03,weatherlink.com 1.10,2013-01-12 23:16:00,
2013-01-12 18:32:00,39.4,39.0,31.04,ENE,76,0.0,3.0,99,0.00,,,0.03,weatherlink.com 1.10,2013-01-12 23:32:00,
2013-01-12 18:46:00,39.3,39.0,31.04,SW,235,0.0,3.0,99,0.00,,,0.03,weatherlink.com 1.10,2013-01-12 23:46:00,
2013-01-12 19:01:00,39.4,39.0,31.05,WNW,298,0.0,3.0,99,0.00,,,0.03,weatherlink.com 1.10,2013-01-13 00:01:00,
2013-01-12 19:16:00,39.4,39.0,31.04,West,274,0.0,4.0,99,0.00,,,0.03,weatherlink.com 1.10,2013-01-13 00:16:00,
2013-01-12 19:31:00,39.3,39.0,31.04,West,267,0.0,2.0,99,0.00,,,0.03,weatherlink.com 1.10,2013-01-13 00:31:00,
2013-01-12 19:46:00,39.2,39.0,31.04,ENE,65,0.0,4.0,99,0.00,,,0.03,weatherlink.com 1.10,2013-01-13 00:46:00,
2013-01-12 20:01:00,39.1,39.0,31.05,ENE,78,1.0,6.0,99,0.00,,,0.03,weatherlink.com 1.10,2013-01-13 01:01:00,
2013-01-12 20:16:00,39.2,39.0,31.05,WNW,302,2.0,3.0,99,0.00,,,0.03,weatherlink.com 1.10,2013-01-13 01:16:00,
2013-01-12 20:31:00,39.1,39.0,31.05,SW,221,2.0,7.0,99,0.01,,,0.04,weatherlink.com 1.10,2013-01-13 01:31:00,
2013-01-12 20:46:00,39.2,39.0,31.04,SSE,152,0.0,4.0,99,0.01,,,0.04,weatherlink.com 1.10,2013-01-13 01:46:00,
2013-01-12 21:01:00,39.2,39.0,31.05,WSW,250,0.0,1.0,99,0.01,,,0.04,weatherlink.com 1.10,2013-01-13 02:01:00,
2013-01-12 21:16:00,39.2,39.0,31.05,West,281,0.0,5.0,99,0.00,,,0.04,weatherlink.com 1.10,2013-01-13 02:16:00,
2013-01-12 21:31:00,39.3,39.0,31.04,SSW,201,0.0,2.0,99,0.00,,,0.04,weatherlink.com 1.10,2013-01-13 02:31:00,
2013-01-12 21:46:00,39.1,39.0,31.03,WNW,302,0.0,4.0,99,0.00,,,0.04,weatherlink.com 1.10,2013-01-13 02:46:00,
2013-01-12 22:01:00,39.3,39.0,31.03,WNW,290,0.0,2.0,99,0.00,,,0.04,weatherlink.com 1.10,2013-01-13 03:01:00,
2013-01-12 22:16:00,39.1,39.0,31.03,NNW,329,4.0,4.0,99,0.00,,,0.04,weatherlink.com 1.10,2013-01-13 03:16:00,
2013-01-12 22:31:00,39.1,39.0,31.03,West,281,1.0,5.0,99,0.00,,,0.04,weatherlink.com 1.10,2013-01-13 03:31:00,
2013-01-12 22:46:00,39.0,39.0,31.04,East,88,0.0,1.0,99,0.00,,,0.04,weatherlink.com 1.10,2013-01-13 03:46:00,
2013-01-12 23:01:00,38.9,39.0,31.03,West,281,0.0,4.0,99,0.00,,,0.04,weatherlink.com 1.10,2013-01-13 04:01:00,
2013-01-12 23:16:00,38.8,39.0,31.03,West,278,0.0,4.0,99,0.00,,,0.04,weatherlink.com 1.10,2013-01-13 04:16:00,
2013-01-12 23:31:00,38.7,39.0,31.04,West,270,1.0,4.0,99,0.00,,,0.04,weatherlink.com 1.10,2013-01-13 04:31:00,
2013-01-12 23:46:00,38.6,38.0,31.04,WNW,295,1.0,5.0,99,0.00,,,0.04,weatherlink.com 1.10,2013-01-13 04:46:00,